This demonstration page uses our WeatherBlox Daily Observations layout. Learn more.

41.55636, -103.73856

Hourly Observations for May 20, 2017

Temp ( °F °C ) Dew Point ( °F °C ) Humidity (%) Winds ( mph kmh ) Pressure ( in mb ) Visibility ( mi km ) Precip ( " mm )
12:34 am 00:34 Cloudy with Light Rain 36 2 34 1 93 93 WNW 7 11 30.21 1023 6 9.65604 0 0
12:53 am 00:53 Cloudy with Light Rain 35 1.7 33 0.6 93 93 WNW 8 13 30.16 1021 7 11.26538 0.08 2.032
1:32 am 01:32 Cloudy with Light Rain 36 2 34 1 93 93 WNW 7 11 30.21 1023 9 14.48406 0 0
1:53 am 01:53 Cloudy with Light Rain 36 2.2 34 1.1 93 93 WNW 8 13 30.14 1021 10 16.0934 0.04 1.016
2:10 am 02:10 Cloudy with Light Rain 36 2 34 1 93 93 WNW 6 9 30.21 1023 10 16.0934 0 0
2:27 am 02:27 Cloudy with Light Rain 36 2.2 34 1.1 93 93 WNW 6 9 30.21 1023 10 16.0934 0.01 0.254
2:53 am 02:53 Cloudy with Light Rain 36 2.2 34 1.1 93 93 WNW 6 9 30.14 1021 9 14.48406 0.02 0.508
3:31 am 03:31 Cloudy with Light Rain 37 2.8 34 1.1 89 89 WNW 7 11 30.18 1022 10 16.0934 0.02 0.508
3:53 am 03:53 Cloudy with Light Rain 37 2.8 34 1.1 89 89 WNW 7 11 30.11 1020 10 16.0934 0.02 0.508
4:04 am 04:04 Cloudy with Light Rain 37 2.8 34 1.1 89 89 WNW 7 11 30.18 1022 10 16.0934 0 0.0254
4:30 am 04:30 Cloudy with Light Rain 37 3 34 1 87 87 WNW 8 13 30.15 1021 10 16.0934 0 0
4:49 am 04:49 Cloudy with Light Rain 37 3 36 2 93 93 WNW 7 11 30.12 1020 10 16.0934 0.01 0.254
4:53 am 04:53 Cloudy 37 2.8 35 1.7 93 93 WNW 8 13 30.09 1019 10 16.0934 0.01 0.254
4:58 am 04:58 Cloudy with Light Rain 37 3 36 2 93 93 WNW 10 17 30.12 1020 10 16.0934 0 0
5:31 am 05:31 Cloudy with Light Rain 37 2.8 34 1.1 89 89 WNW 7 11 30.12 1020 10 16.0934 0 0.0254
5:45 am 05:45 Cloudy with Light Rain 37 2.8 35 1.7 93 93 WNW 7 11 30.12 1020 10 16.0934 0.01 0.254
5:53 am 05:53 Cloudy with Light Rain 37 2.8 35 1.7 93 93 WNW 9 15 30.08 1019 10 16.0934 0.01 0.254
6:53 am 06:53 Cloudy 39 3.9 36 2.2 89 89 NNW 8 13 30.09 1019 10 16.0934 0 0.0254
7:39 am 07:39 Cloudy with Light Rain 40 4.4 36 2.2 86 86 NW 9 15 30.12 1020 8 12.87472 0.01 0.254
7:53 am 07:53 Cloudy 40 4.4 36 2.2 86 86 NW 10 17 30.08 1019 10 16.0934 0.01 0.254
8:53 am 08:53 Cloudy 42 5.6 37 2.8 82 82 NW 10 17 30.08 1019 10 16.0934 0 0
9:53 am 09:53 Mostly Cloudy 48 8.9 40 4.4 74 74 WNW 14 22 30.04 1017 10 16.0934 0 0
10:53 am 10:53 Cloudy 48 8.9 39 3.9 71 71 WNW 8 13 30.03 1017 10 16.0934 0 0
11:17 am 11:17 Cloudy 50 10 39 3.9 66 66 NW 16 26 29.97 1015 10 16.0934 0 0
11:53 am 11:53 Cloudy 51 10.6 37 2.8 59 59 NW 15 24 30.02 1017 10 16.0934 0 0
12:53 pm 12:53 Cloudy 52 11.1 37 2.8 57 57 NNW 14 22 30.01 1016 10 16.0934 0 0
1:53 pm 13:53 Cloudy 54 12.2 36 2.2 51 51 NNW 14 22 30 1016 10 16.0934 0 0
2:53 pm 14:53 Cloudy 55 12.8 37 2.8 51 51 NNW 15 24 30 1016 10 16.0934 0 0
3:53 pm 15:53 Cloudy 59 15 37 2.8 44 44 NW 17 28 29.97 1015 10 16.0934 0 0
4:53 pm 16:53 Cloudy 57 13.9 36 2.2 45 45 N 16 26 29.98 1015 10 16.0934 0 0
5:53 pm 17:53 Cloudy 57 13.9 40 4.4 53 53 NNE 12 19 29.99 1016 10 16.0934 0 0
6:53 pm 18:53 Cloudy 54 12.2 41 5 62 62 NNE 10 17 30 1016 10 16.0934 0 0
7:53 pm 19:53 Sunny 51 10.6 41 5 69 69 N 5 7 30.02 1017 10 16.0934 0 0
8:53 pm 20:53 Clear 45 7.2 39 3.9 80 80 NNE 7 11 30.05 1018 10 16.0934 0 0
9:53 pm 21:53 Clear 42 5.6 37 2.8 82 82 N 3 6 30.07 1018 10 16.0934 0 0
10:53 pm 22:53 Clear 42 5.6 37 2.8 82 82 Calm 30.08 1019 10 16.0934 0 0
11:53 pm 23:53 Clear 39 3.9 35 1.7 86 86 NNW 3 6 30.09 1019 10 16.0934 0 0

Powered by AerisWeather